Location: Olmeneta
(45.2333°N, 10.0167°E)
Time: 12:35:00
(UTC+00:00)

Cosmos 1470 Rocket - Pass Details

Date: 03 March 2021
Orbit: 602 x 635 km, 82.5° (Epoch: 11 April)

Event Time Altitude Azimuth Distance (km) Brightness Sun altitude
Rises 18:34:46 0° 198° (SSW) 2,917 7.2 -15.7°
Reaches altitude 10° 18:37:02 10° 202° (SSW) 2,012 6.4 -16.1°
Maximum altitude 18:41:25 57° 281° (W) 745 4.3 -16.9°
Drops below altitude 10° 18:45:50 10° 1° (N) 2,015 6.3 -17.6°
Sets 18:48:07 0° 5° (N) 2,922 7.1 -18.0°
